Date,TemperatureHighF,TemperatureAvgF,TemperatureLowF,DewpointHighF,DewpointAvgF,DewpointLowF,HumidityHigh,HumidityAvg,HumidityLow,PressureMaxIn,PressureMinIn,WindSpeedMaxMPH,WindSpeedAvgMPH,GustSpeedMaxMPH,PrecipitationSumIn
2013-1-1,35.2,32.8,31.3,32.6,29.0,23.2,91,86,63,30.06,29.91,6,0,6,0.04
2013-1-2,36.3,28.5,22.8,29.2,24.2,18.1,91,84,69,30.13,29.96,5,0,5,0.00
2013-1-3,51.6,28.5,18.9,32.2,21.0,15.6,88,75,42,30.21,30.09,9,1,10,0.00
2013-1-4,39.4,26.8,22.5,27.4,19.5,16.6,80,74,58,30.27,30.19,15,3,16,0.00
2013-1-5,57.4,31.9,16.9,32.3,22.3,13.2,86,69,39,30.34,30.14,9,0,9,0.00
2013-1-6,38.5,35.0,32.5,28.8,26.9,24.5,78,72,66,30.18,30.02,11,3,11,0.00
2013-1-7,64.2,36.2,26.4,36.3,24.4,19.5,77,64,32,30.38,30.18,36,4,36,0.00
2013-1-8,66.4,39.3,24.6,33.7,24.4,19.0,81,59,27,30.34,30.24,7,0,7,0.00
2013-1-9,48.0,41.2,32.7,44.3,35.5,23.8,91,80,65,30.45,30.26,8,0,8,0.00
2013-1-10,62.1,43.5,31.6,50.9,34.5,29.0,93,73,39,30.49,30.26,8,1,8,0.00
2013-1-11,63.1,52.1,43.5,53.0,45.4,34.8,89,78,62,30.26,30.04,18,2,19,0.00
2013-1-12,85.6,56.3,45.5,63.1,50.6,42.6,92,83,44,30.15,30.08,12,1,12,0.00
2013-1-13,78.1,57.7,55.4,57.4,53.0,39.7,89,85,49,30.11,30.04,10,5,11,0.00
2013-1-14,56.5,42.2,34.0,54.2,39.7,31.6,92,91,89,30.28,30.02,9,2,9,0.00
2013-1-15,40.8,36.6,33.3,38.7,34.5,31.0,93,92,91,30.23,29.95,5,1,5,0.00
2013-1-16,51.6,40.6,35.4,48.9,38.4,33.1,94,92,88,30.03,29.88,9,1,9,0.00
2013-1-17,36.3,32.4,28.2,34.2,29.2,25.4,92,88,82,30.19,29.99,7,0,7,0.00
2013-1-18,56.1,32.3,22.5,29.5,23.1,18.6,90,71,32,30.40,30.19,10,1,10,0.00
2013-1-19,60.6,40.4,22.8,33.7,23.1,17.9,83,53,29,30.31,30.02,16,3,17,0.00
2013-1-20,61.0,40.0,26.8,34.4,23.7,13.8,72,53,33,30.06,30.00,16,3,17,0.00
2013-1-21,49.6,29.4,19.2,26.9,13.2,4.4,80,53,28,30.05,29.87,22,5,22,0.00
2013-1-22,35.4,17.4,9.0,8.8,0.5,-3.5,62,48,31,30.16,29.98,16,5,17,0.00
2013-1-23,25.9,17.6,8.4,14.8,3.6,-3.2,64,54,35,30.20,29.94,15,3,15,0.00
2013-1-24,36.3,19.6,9.7,17.7,8.8,1.8,75,63,44,30.37,29.93,20,4,20,0.00
2013-1-25,28.9,20.7,10.8,25.8,13.7,3.8,88,74,58,30.32,29.93,8,1,8,0.00
2013-1-26,28.9,25.0,22.8,24.8,20.4,17.6,87,83,77,30.32,30.03,10,1,10,0.00
2013-1-27,51.1,31.6,16.3,29.4,20.7,11.8,84,66,42,30.37,30.26,8,1,8,0.00
2013-1-28,60.4,45.5,32.2,47.8,39.3,24.5,91,80,59,30.26,30.13,15,4,15,0.00
2013-1-29,79.3,56.7,47.7,57.4,48.3,44.9,91,75,45,30.16,29.92,15,2,16,0.00
2013-1-30,66.4,55.8,42.6,55.8,50.4,39.1,92,83,69,29.92,29.41,20,4,20,0.00
2013-1-31,42.4,29.3,25.9,39.4,22.0,16.9,89,74,59,29.88,29.42,21,7,22,0.00
2013-2-1,34.9,17.9,5.0,23.6,8.5,-1.0,88,68,39,30.24,29.77,25,4,25,0.00
2013-2-2,32.2,18.5,4.6,23.0,12.9,-0.9,87,79,46,30.21,29.93,10,1,10,0.00
2013-2-3,31.1,25.2,21.0,24.6,20.6,15.6,88,82,75,30.01,29.81,18,4,19,0.00
2013-2-4,44.4,30.0,16.5,29.2,20.3,11.1,82,68,45,30.03,29.84,14,3,15,0.00
2013-2-5,47.1,38.8,35.4,36.3,30.5,25.8,81,72,64,29.92,29.83,14,3,15,0.00
2013-2-6,64.6,40.5,27.7,39.0,29.2,22.3,82,66,37,30.20,29.92,14,2,15,0.00
2013-2-7,48.0,37.9,28.0,35.6,29.7,23.3,83,72,60,30.20,29.96,13,2,13,0.00
2013-2-8,48.4,34.9,28.6,41.7,30.2,23.2,90,83,73,30.14,29.86,15,3,15,0.00
2013-2-9,63.0,35.7,23.4,31.8,21.2,15.0,80,59,27,30.27,30.14,10,2,11,0.00
2013-2-10,64.8,41.7,23.5,35.5,23.3,14.9,81,51,27,30.26,30.00,14,3,14,0.00
2013-2-11,61.0,50.0,39.4,49.9,37.5,20.5,84,64,36,30.01,29.86,21,6,21,0.00
2013-2-12,71.2,43.0,30.7,37.3,24.6,21.1,70,50,25,30.09,29.90,14,3,15,0.00
2013-2-13,40.8,35.5,30.4,36.5,28.8,22.7,88,77,59,29.90,29.57,12,2,12,0.00
2013-2-14,59.4,38.5,27.3,35.0,27.3,23.1,89,67,38,29.98,29.85,12,2,12,0.00
2013-2-15,54.0,34.6,26.4,42.7,28.1,22.5,88,78,52,30.02,29.93,12,1,12,0.00
2013-2-16,36.5,26.1,19.2,26.9,20.7,13.7,87,80,63,29.98,29.86,9,0,9,0.00
2013-2-17,36.1,18.6,9.3,18.2,8.8,3.0,82,67,42,30.14,29.89,16,2,17,0.00
2013-2-18,62.1,33.3,7.2,36.6,19.2,2.0,80,59,37,30.22,29.95,16,2,16,0.00
2013-2-19,52.9,38.3,28.2,40.3,26.6,14.1,87,64,41,29.97,29.78,24,6,25,0.00
2013-2-20,46.2,27.7,20.5,22.6,13.9,10.4,66,57,36,30.13,29.95,16,4,17,0.00
2013-2-21,57.6,31.1,13.3,29.9,16.3,7.4,78,57,32,30.19,30.06,7,1,7,0.00
2013-2-22,51.4,37.3,31.3,41.1,30.7,18.0,87,78,45,30.13,29.97,13,3,13,0.00
2013-2-23,70.0,46.0,35.1,48.8,36.4,31.4,89,72,37,29.99,29.81,12,1,12,0.00
2013-2-24,55.4,38.9,26.2,31.6,25.3,17.6,83,60,34,30.05,29.84,15,3,16,0.00
2013-2-25,60.8,35.2,20.3,33.2,22.6,15.5,84,63,33,30.08,29.95,8,1,8,0.00
2013-2-26,44.8,35.3,30.7,38.0,27.3,19.8,87,73,60,29.98,29.53,24,6,24,0.00
2013-2-28,30.0,29.0,28.6,26.3,25.2,23.8,89,86,81,29.83,29.73,14,6,14,0.00
2013-3-1,36.9,30.4,27.3,29.4,26.1,22.8,90,84,72,29.89,29.80,13,2,13,0.00
2013-3-2,32.5,25.5,21.7,23.5,19.8,17.0,84,79,66,29.91,29.84,9,2,9,0.00
2013-3-3,31.3,22.3,19.6,22.8,17.0,15.3,84,80,68,29.96,29.88,10,1,10,0.00
2013-3-4,54.1,32.3,19.0,27.7,18.3,12.1,84,59,31,30.08,29.95,14,2,14,0.00
2013-3-5,47.7,35.9,29.3,39.6,30.8,19.7,90,82,66,30.01,29.57,18,2,18,0.00
2013-3-6,32.2,28.3,25.0,29.3,24.3,21.1,89,85,78,30.09,29.63,17,4,17,0.00
2013-3-7,32.9,29.0,27.1,29.0,25.8,24.3,90,88,82,30.23,30.08,10,3,10,0.00
2013-3-8,54.7,35.5,25.9,36.3,26.2,20.1,87,71,44,30.31,30.19,10,2,10,0.00
2013-3-9,71.4,43.7,21.4,39.3,27.8,17.8,86,58,28,30.30,30.16,8,1,8,0.00
2013-3-10,75.7,55.0,43.2,43.0,33.4,27.7,55,45,30,30.18,30.06,10,3,10,0.00
2013-3-11,57.6,51.2,47.7,45.3,39.7,32.4,88,65,49,30.08,29.80,15,3,16,0.00
2013-3-12,51.6,38.9,28.6,44.4,33.3,23.5,89,81,55,30.00,29.80,11,2,11,0.00
2013-3-13,40.6,30.2,23.4,30.5,24.2,17.4,86,78,61,30.13,29.95,36,4,36,0.00
2013-3-14,48.7,31.5,20.8,27.3,18.4,14.4,83,61,36,30.21,30.11,15,4,16,0.00
2013-3-15,60.4,41.7,23.5,37.2,26.1,13.5,70,55,42,30.14,29.87,17,3,18,0.00
2013-3-16,75.0,54.3,37.6,52.8,42.8,29.9,88,67,41,29.92,29.68,20,4,20,0.00
2013-3-17,48.4,41.9,38.5,42.5,37.7,34.8,88,85,79,30.05,29.90,8,1,9,0.00
2013-3-18,42.1,36.9,34.3,37.5,32.9,30.0,89,85,74,30.00,29.78,14,3,14,0.00
2013-3-19,56.5,43.1,34.0,42.5,26.0,9.2,91,57,21,30.02,29.77,24,7,24,0.00
2013-3-20,54.1,36.9,25.0,23.8,16.2,9.9,78,45,26,30.03,29.78,19,4,20,0.00
2013-3-21,36.3,23.1,15.3,24.1,15.1,8.8,79,72,53,29.93,29.79,11,2,11,0.00
2013-3-22,54.0,29.0,10.0,28.7,15.0,5.1,83,59,31,29.99,29.90,11,2,11,0.00
2013-3-23,64.9,38.4,23.9,31.6,22.2,15.7,74,55,28,29.99,29.85,7,0,7,0.00
2013-3-24,37.8,33.4,28.8,30.1,25.7,18.8,89,74,50,29.89,29.44,17,2,18,0.00
2013-3-25,36.9,30.5,27.7,29.2,26.1,23.7,90,84,67,29.79,29.46,0,0,0,0.00
2013-3-26,44.4,31.5,28.0,32.8,26.4,24.4,88,82,59,30.10,29.79,15,5,15,0.00
2013-3-27,42.6,31.1,26.6,32.0,25.3,22.4,87,80,59,30.19,30.08,13,4,13,0.00
2013-3-28,49.8,36.1,26.2,31.4,25.8,20.2,88,68,45,30.24,30.16,15,2,15,0.00
2013-3-29,61.7,39.6,23.2,35.8,26.2,19.6,86,62,35,30.26,30.14,36,4,36,0.00
2013-3-30,72.0,46.8,28.2,41.4,29.8,20.3,85,56,27,30.21,30.01,12,1,12,0.00
2013-3-31,55.2,47.1,42.6,47.6,40.6,29.7,90,79,57,30.01,29.81,13,2,13,0.00
2013-4-1,52.5,41.3,32.2,46.3,35.4,24.7,91,80,63,30.01,29.84,14,3,15,0.00
2013-4-2,54.9,37.7,28.0,26.4,20.6,13.6,74,53,29,30.14,30.01,16,2,17,0.00
2013-4-3,58.8,38.1,21.6,29.1,18.7,12.4,77,48,26,30.27,30.14,14,2,15,0.00
2013-4-4,46.2,35.0,27.3,30.6,21.4,12.2,86,60,36,30.26,29.96,9,2,9,0.00
2013-4-5,67.8,47.1,34.3,43.4,34.4,26.3,90,66,34,30.06,29.92,12,2,12,0.00
2013-4-6,77.2,51.1,28.6,39.2,31.7,24.1,84,53,23,30.19,30.07,10,2,10,0.00
2013-4-7,77.2,57.7,43.9,46.2,37.8,30.0,64,48,32,30.11,30.02,28,3,28,0.00
2013-4-8,80.2,62.1,46.0,52.3,44.5,37.4,76,54,35,30.11,30.01,16,3,17,0.00
2013-4-9,85.3,65.2,47.1,58.2,47.9,41.3,82,57,35,30.18,30.06,13,2,13,0.00
2013-4-10,91.9,69.3,49.6,61.1,50.1,42.5,81,54,28,30.11,29.94,13,3,14,0.00
2013-4-11,88.0,68.8,51.6,59.5,50.9,44.8,81,56,26,29.96,29.72,11,2,11,0.00
2013-4-12,68.4,58.1,45.7,57.4,48.1,32.6,91,71,39,29.90,29.63,15,4,16,0.00
2013-4-13,69.1,54.3,41.5,40.3,34.6,28.1,72,50,31,30.03,29.89,36,5,36,0.00
2013-4-14,82.2,58.8,35.2,46.1,36.7,26.8,78,47,23,30.10,29.97,11,2,11,0.00
2013-4-15,63.7,53.6,48.9,52.5,47.9,43.8,89,81,63,30.16,30.03,14,2,14,0.00
2013-4-16,89.8,67.3,52.9,63.0,54.3,48.8,88,66,37,30.25,30.12,12,2,12,0.00
2013-4-17,78.8,62.4,55.9,62.3,56.0,52.1,92,81,56,30.27,30.11,8,1,9,0.00
2013-4-18,81.3,68.1,57.4,61.7,55.4,51.5,83,65,44,30.12,29.92,36,3,36,0.00
2013-4-19,68.7,57.2,38.5,61.4,50.2,34.1,88,78,66,29.95,29.68,36,7,36,0.00
2013-4-20,60.6,44.3,32.9,35.4,29.9,24.3,85,59,32,30.30,29.95,36,10,36,0.00
2013-4-21,71.4,48.3,28.9,39.2,30.7,22.1,82,54,29,30.42,30.29,36,3,36,0.00
2013-4-22,72.3,52.0,37.2,40.6,32.1,24.0,71,49,28,30.37,30.21,36,3,36,0.00
2013-4-23,79.7,58.2,39.0,46.3,36.5,24.5,70,47,27,30.23,30.03,12,1,12,0.00
2013-4-24,77.4,58.0,39.9,55.3,45.5,35.8,86,65,41,30.18,29.92,21,4,21,0.00
2013-4-25,69.1,48.2,32.2,41.1,32.2,26.1,86,58,27,30.32,30.18,15,2,16,0.00
2013-4-26,74.7,51.9,31.3,43.3,33.7,26.0,82,53,29,30.40,30.29,10,1,10,0.00
2013-4-27,69.4,54.2,42.3,46.0,40.3,32.3,79,61,41,30.34,30.17,8,1,8,0.00
2013-4-28,61.9,53.7,48.9,50.6,47.2,44.9,90,79,65,30.18,29.98,13,2,13,0.00
2013-4-29,70.7,56.8,49.1,56.7,49.6,45.1,88,77,57,30.05,29.98,9,1,9,0.00
2013-4-30,86.2,63.1,43.7,61.4,51.4,40.7,92,69,40,30.19,30.02,12,1,12,0.00
2013-5-1,78.6,62.9,53.1,55.9,49.9,43.3,82,64,43,30.30,30.18,18,2,19,0.00
2013-5-2,58.8,55.9,52.9,48.7,46.3,44.8,76,70,64,30.29,30.22,8,2,8,0.00
2013-5-3,70.2,57.3,47.1,46.9,42.4,38.3,79,59,35,30.24,30.12,13,2,13,0.00
2013-5-4,73.6,56.5,43.9,47.5,40.4,34.6,73,57,32,30.12,30.03,10,3,11,0.00
2013-5-5,65.1,54.0,47.3,46.2,39.0,24.5,80,59,29,30.08,29.94,13,3,13,0.00
2013-5-6,57.6,52.6,49.6,53.7,48.4,45.1,91,86,79,29.96,29.90,10,1,10,0.00
2013-5-7,63.1,52.2,47.1,56.5,49.2,44.9,94,90,78,29.99,29.90,2,0,2,0.00
2013-5-8,67.8,53.6,48.7,57.3,49.6,45.6,93,87,66,30.04,29.90,0,0,0,0.00
2013-5-9,79.2,62.0,47.7,57.3,52.4,44.9,93,73,45,30.10,30.00,0,0,0,0.00
2013-5-10,76.8,62.6,51.6,58.9,54.0,48.2,90,76,49,30.10,29.95,12,0,12,0.00
2013-5-11,71.2,59.9,53.1,59.7,54.3,47.9,92,82,65,29.96,29.86,0,0,0,0.00
2013-5-12,59.7,49.3,41.2,47.5,36.9,30.1,86,64,41,30.09,29.90,0,0,0,0.00
2013-5-13,57.4,45.2,34.5,35.9,32.4,29.9,85,63,41,30.17,30.06,36,3,36,0.00
2013-5-14,75.4,53.3,30.9,47.9,37.4,27.2,87,59,33,30.20,29.99,11,2,11,0.00
2013-5-15,86.4,69.7,55.2,59.3,53.0,44.8,77,58,36,30.07,29.95,14,3,15,0.00
2013-5-16,77.2,65.0,56.7,59.4,53.7,47.9,90,68,52,30.09,29.99,11,2,11,0.00
2013-5-17,80.8,64.9,54.1,65.2,56.8,51.7,93,77,51,30.15,30.06,0,0,0,0.00
2013-5-18,77.5,66.6,60.1,63.0,59.0,56.0,89,77,56,30.15,30.07,0,0,0,0.00
2013-5-19,76.8,65.3,60.6,66.4,60.1,57.1,91,84,67,30.13,30.04,0,0,0,0.00
2013-5-20,71.4,63.9,58.8,66.0,60.5,56.5,92,89,81,30.15,30.06,0,0,0,0.00
2013-5-21,85.3,68.4,54.7,68.2,60.6,52.7,94,78,51,30.10,29.96,0,0,0,0.00
2013-5-22,81.3,64.8,56.5,66.5,59.0,53.9,92,83,57,30.04,29.93,0,0,0,0.00
2013-5-23,78.6,64.1,57.4,61.8,57.6,53.9,93,81,51,29.97,29.88,0,0,0,0.00
2013-5-24,57.4,50.0,42.6,53.9,43.0,36.5,91,78,55,30.24,29.94,0,0,0,0.00
2013-5-25,61.9,48.2,35.1,41.1,36.4,31.2,87,66,42,30.32,30.23,0,0,0,0.00
2013-5-26,71.2,54.1,40.8,49.1,41.8,36.1,86,66,43,30.29,30.22,0,0,0,0.00
2013-5-27,77.2,60.5,46.9,60.3,49.8,39.8,82,69,54,30.27,30.13,0,0,0,0.00
2013-5-28,82.2,69.6,56.8,61.6,56.7,52.1,87,66,43,30.22,30.11,0,0,0,0.00
2013-5-29,86.2,70.4,57.0,62.4,58.3,53.5,89,68,43,30.25,30.15,0,0,0,0.00
2013-5-30,89.4,72.1,57.9,62.7,58.0,54.1,88,64,35,30.29,30.16,2,0,2,0.00
2013-5-31,85.1,71.4,56.5,64.3,59.1,52.3,87,67,46,30.23,30.10,2,0,2,0.00
2013-6-1,85.8,74.4,64.2,66.3,61.1,57.4,81,64,48,30.14,30.00,36,1,36,0.00
2013-6-2,71.8,68.4,62.4,64.8,60.8,57.6,91,77,64,30.02,29.94,5,0,5,0.00
2013-6-3,75.0,64.6,57.6,63.9,59.5,53.4,93,84,61,30.07,29.94,0,0,0,0.00
2013-6-4,79.5,64.4,55.2,61.1,55.7,52.3,91,75,52,30.14,30.06,0,0,0,0.00
2013-6-5,79.0,67.0,56.1,66.2,59.2,51.5,89,77,62,30.13,30.00,0,0,0,0.00
2013-6-6,75.9,66.3,61.0,67.7,61.2,56.5,91,84,73,30.05,29.84,0,0,0,0.00
2013-6-7,65.5,63.2,58.8,63.4,60.8,55.9,93,92,90,29.92,29.79,0,0,0,0.00
2013-6-8,81.1,65.3,56.5,62.4,57.5,54.2,93,78,52,30.15,29.91,0,0,0,0.00
2013-6-9,85.8,69.1,56.8,65.3,59.4,53.8,91,74,46,30.20,30.07,0,0,0,0.00
2013-6-10,73.8,65.2,61.3,66.5,61.5,58.1,93,88,68,30.08,29.93,0,0,0,0.00
2013-6-11,76.6,66.3,60.4,65.4,61.4,58.4,94,85,67,30.06,29.94,0,0,0,0.00
2013-6-12,87.6,71.6,61.3,73.0,65.6,58.2,92,82,59,30.06,29.94,0,0,0,0.00
2013-6-13,74.1,67.6,57.7,69.8,64.0,55.1,93,88,82,29.96,29.75,8,0,8,0.00
2013-6-14,73.0,61.4,52.7,59.8,55.3,50.4,93,81,62,30.11,29.90,5,0,5,0.00
2013-6-15,79.9,63.7,50.4,60.4,54.3,47.8,92,74,49,30.18,30.10,6,0,6,0.00
2013-6-16,78.6,66.4,56.1,65.7,59.5,52.3,92,80,59,30.13,30.06,32,2,32,0.00
2013-6-17,82.6,69.1,59.2,68.7,62.8,54.7,94,82,60,30.09,29.98,12,0,12,0.00
2013-6-18,72.3,62.5,58.8,66.0,59.8,56.2,94,91,79,30.03,29.92,0,0,0,0.00
2013-6-19,79.2,65.3,56.3,67.0,59.6,54.3,95,83,61,30.17,30.01,0,0,0,0.00
2013-6-20,80.4,67.7,55.4,66.8,60.4,52.8,92,79,59,30.26,30.17,0,0,0,0.00
2013-6-21,84.0,70.7,60.1,68.1,62.2,57.1,91,76,57,30.29,30.21,0,0,0,0.00
2013-6-22,86.2,71.0,58.8,66.8,60.7,55.3,88,71,51,30.30,30.17,0,0,0,0.00
2013-6-23,87.3,72.0,60.6,66.3,62.0,57.0,90,72,45,30.26,30.16,0,0,0,0.00
2013-6-24,84.0,71.9,62.2,68.6,63.9,59.0,90,77,55,30.26,30.14,0,0,0,0.00
2013-6-25,84.9,72.0,62.8,70.7,65.6,60.1,92,81,59,30.20,30.06,0,0,0,0.00
2013-6-26,81.1,72.2,65.3,70.0,66.3,62.1,91,82,65,30.08,29.95,0,0,0,0.00
2013-6-27,71.4,68.0,63.1,67.8,64.3,60.5,93,88,78,29.96,29.81,0,0,0,0.00
2013-6-28,81.7,72.6,63.7,68.7,64.6,59.6,94,78,53,29.85,29.67,0,0,0,0.00
2013-6-29,80.4,68.1,58.8,64.7,60.4,56.5,94,78,55,29.80,29.70,0,0,0,0.00
2013-6-30,84.7,70.8,58.8,66.5,61.2,55.9,91,74,50,29.89,29.78,2,0,2,0.00
2013-7-1,80.1,70.3,64.2,69.5,64.1,59.8,92,81,65,30.02,29.88,4,0,4,0.00
2013-7-2,78.6,68.3,63.7,69.1,64.3,61.0,93,87,71,30.16,29.99,35,2,35,0.00
2013-7-3,76.5,67.4,63.7,69.1,64.4,61.5,94,90,76,30.25,30.16,36,5,36,0.00
2013-7-4,82.6,72.1,64.6,71.3,66.2,62.2,94,83,67,30.28,30.19,36,6,36,0.00
2013-7-5,81.7,71.4,65.7,72.0,66.0,62.5,92,84,65,30.26,30.19,24,1,25,0.00
2013-7-6,85.5,72.9,63.0,70.9,65.5,60.9,94,79,54,30.26,30.15,34,3,35,0.00
2013-7-7,73.2,67.4,64.0,68.6,64.5,61.3,93,90,84,30.23,30.14,36,1,36,0.00
2013-7-8,81.3,70.0,62.4,68.3,64.0,60.1,94,82,60,30.24,30.17,4,0,4,0.00
2013-7-9,85.6,73.9,64.6,70.5,66.5,62.2,93,79,56,30.22,30.13,5,0,5,0.00
2013-7-10,82.2,71.5,66.0,73.7,68.0,63.5,93,89,72,30.16,30.01,23,1,24,0.00
2013-7-11,79.5,68.9,64.0,70.1,65.2,62.3,95,88,70,30.05,29.98,25,0,25,0.00
2013-7-12,75.7,66.5,60.4,66.9,62.3,56.8,93,87,70,30.12,29.99,29,1,29,0.00
2013-7-13,76.3,67.1,57.0,67.4,62.3,55.0,95,85,73,30.22,30.09,30,1,30,0.00
2013-7-14,82.2,73.6,67.6,69.7,66.3,64.4,91,79,62,30.35,30.21,6,0,6,0.00
2013-7-15,90.0,75.1,64.6,70.5,65.8,61.6,92,75,47,30.40,30.32,6,0,6,0.00
2013-7-16,87.6,74.9,63.1,72.1,66.8,60.5,92,77,56,30.40,30.32,0,0,0,0.00
2013-7-17,86.9,75.3,66.6,74.4,69.3,64.0,92,82,66,30.37,30.24,0,0,0,0.00
2013-7-18,89.4,76.2,68.5,76.1,70.6,66.4,94,84,63,30.28,30.16,0,0,0,0.00
2013-7-19,85.8,75.1,66.9,74.5,69.4,64.8,93,83,67,30.18,30.04,0,0,0,0.00
2013-7-20,85.8,74.5,67.1,72.2,67.8,64.1,92,81,59,30.08,29.98,0,0,0,0.00
2013-7-21,80.4,70.1,64.0,71.6,66.8,61.7,93,89,72,30.08,30.00,0,0,0,0.00
2013-7-22,78.1,70.7,66.6,71.8,67.3,64.8,95,89,78,30.04,29.89,0,0,0,0.00
2013-7-23,82.2,71.6,66.7,71.0,66.5,64.8,95,85,64,29.94,29.85,0,0,0,0.00
2013-7-24,77.5,67.8,61.2,68.7,63.2,58.5,93,85,66,30.00,29.86,0,0,0,0.00
2013-7-25,75.7,65.5,57.9,61.2,57.9,53.6,91,78,58,30.14,29.99,0,0,0,0.00
2013-7-26,82.0,66.4,51.1,64.4,57.7,48.2,91,76,50,30.14,30.07,0,0,0,0.00
2013-7-27,76.8,66.3,63.0,68.3,62.9,59.5,93,89,72,30.08,29.95,0,0,0,0.00
2013-7-28,76.3,67.1,60.1,63.8,60.9,54.6,93,81,62,30.12,29.95,0,0,0,0.00
2013-7-29,75.4,62.4,51.6,58.2,54.0,48.8,93,76,53,30.27,30.12,0,0,0,0.00
2013-7-30,80.4,64.9,50.5,61.1,55.6,47.7,91,74,46,30.29,30.20,0,0,0,0.00
2013-7-31,64.8,62.7,60.6,61.9,60.0,58.3,94,91,86,30.21,30.05,0,0,0,0.00
2013-8-1,78.6,67.9,62.8,68.0,63.4,59.5,95,86,68,30.05,29.98,0,0,0,0.00
2013-8-2,77.7,66.6,57.7,64.5,59.6,55.6,94,80,57,30.11,30.03,0,0,0,0.00
2013-8-3,79.3,67.9,59.4,65.9,61.4,56.4,92,81,58,30.10,30.03,0,0,0,0.00
2013-8-4,75.6,66.8,58.8,63.7,60.5,54.6,92,81,63,30.15,30.05,0,0,0,0.00
2013-8-5,79.3,65.0,53.4,63.6,57.2,50.9,92,77,58,30.15,30.06,0,0,0,0.00
2013-8-6,82.0,68.6,58.8,66.7,61.4,55.3,91,79,59,30.08,30.03,0,0,0,0.00
2013-8-7,77.9,69.0,64.6,70.1,65.5,61.8,94,89,77,30.10,30.06,0,0,0,0.00
2013-8-8,75.9,70.2,66.0,71.4,67.6,64.2,95,91,83,30.10,30.04,0,0,0,0.00
2013-8-9,82.2,73.6,67.6,72.2,68.6,65.5,94,85,69,30.13,30.04,0,0,0,0.00
2013-8-10,79.7,71.7,66.9,71.4,67.8,65.0,95,88,74,30.17,30.11,0,0,0,0.00
2013-8-11,80.4,70.7,66.9,72.1,67.7,64.5,95,91,72,30.19,30.11,0,0,0,0.00
2013-8-12,79.9,70.8,66.0,70.9,66.8,64.2,95,88,68,30.16,30.02,0,0,0,0.00
2013-8-13,74.3,67.5,64.6,68.4,64.6,61.3,95,90,75,30.03,29.93,0,0,0,0.00
2013-8-14,70.2,60.6,51.6,61.3,53.1,47.9,89,77,58,30.17,30.00,0,0,0,0.00
2013-8-15,74.8,59.2,45.1,59.7,51.7,42.4,92,77,58,30.19,30.10,0,0,0,0.00
2013-8-16,77.5,64.2,52.5,61.4,55.2,49.1,89,74,53,30.20,30.13,0,0,0,0.00
2013-8-17,71.4,62.7,55.2,59.1,56.1,51.6,88,80,64,30.25,30.19,0,0,0,0.00
2013-8-18,70.7,64.1,60.6,64.6,60.3,57.4,92,87,80,30.26,30.18,0,0,0,0.00
2013-8-19,73.4,66.3,63.3,68.8,63.6,61.3,95,91,83,30.21,30.14,0,0,0,0.00
2013-8-20,86.0,74.0,58.8,70.3,66.2,55.9,95,78,57,30.25,30.17,0,0,0,0.00
2013-8-21,79.9,70.1,63.7,70.4,65.6,61.0,94,86,69,30.28,30.16,0,0,0,0.00
2013-8-22,79.5,68.7,59.4,69.9,64.0,57.3,95,86,69,30.22,30.11,0,0,0,0.00
2013-8-23,78.6,68.7,62.8,68.8,64.1,59.5,94,86,69,30.19,30.08,0,0,0,0.00
2013-8-24,81.1,66.9,55.8,66.3,57.7,53.5,93,75,47,30.34,30.18,0,0,0,0.00
2013-8-25,73.0,58.4,52.7,60.9,53.8,49.8,91,85,63,30.43,30.34,0,0,0,0.00
2013-8-27,79.7,73.4,67.1,70.5,67.1,60.1,91,81,64,30.41,30.08,0,0,0,0.00
2013-8-28,84.0,73.0,67.1,72.3,68.2,64.2,94,86,65,30.11,29.97,0,0,0,0.00
2013-8-29,86.0,73.9,67.5,72.7,68.5,64.1,94,84,62,30.09,29.99,0,0,0,0.00
2013-8-30,87.6,73.9,65.1,71.6,66.3,62.1,91,78,55,30.09,29.99,0,0,0,0.00
2013-8-31,82.6,70.1,62.6,72.9,65.4,60.1,92,85,70,30.02,29.93,0,0,0,0.00
2013-9-1,78.1,68.2,62.2,71.2,64.5,59.9,93,88,76,29.97,29.90,0,0,0,0.00
2013-9-2,83.5,71.6,64.0,71.1,66.6,62.0,95,85,62,29.98,29.91,0,0,0,0.00
2013-9-3,80.6,69.7,58.8,66.9,62.8,55.0,93,80,56,30.10,29.92,0,0,0,0.00
2013-9-4,82.6,65.0,52.5,62.4,56.4,50.0,92,76,47,30.19,30.09,0,0,0,0.00
2013-9-5,83.1,65.1,51.4,64.3,57.0,48.9,92,77,51,30.22,30.17,0,0,0,0.00
2013-9-6,85.5,65.5,55.6,64.8,56.1,52.0,93,74,40,30.24,30.15,0,0,0,0.00
2013-9-7,85.8,65.0,49.6,61.4,53.5,46.5,91,70,41,30.17,30.06,0,0,0,0.00
2013-9-8,82.4,67.7,55.9,68.0,60.5,52.4,89,79,60,30.11,30.03,0,0,0,0.00
2013-9-9,86.5,71.1,59.7,71.0,64.0,57.1,92,80,59,30.19,30.10,0,0,0,0.00
2013-9-10,91.6,73.8,63.7,71.9,65.6,60.7,91,77,51,30.28,30.19,0,0,0,0.00
2013-9-11,83.1,68.6,64.0,73.3,65.2,61.4,93,89,70,30.28,30.16,0,0,0,0.00
2013-9-12,82.0,68.4,63.0,72.3,64.6,60.6,94,88,64,30.16,29.94,0,0,0,0.00
2013-9-13,75.0,62.1,50.2,60.7,54.9,45.3,94,79,52,30.04,29.90,0,0,0,0.00
2013-9-14,80.2,55.8,45.7,55.5,46.8,42.9,91,74,41,30.16,30.04,0,0,0,0.00
2013-9-15,77.5,60.0,45.3,59.6,51.8,41.7,89,76,52,30.22,30.14,0,0,0,0.00
2013-9-16,66.7,57.8,50.7,61.0,53.7,47.6,92,86,78,30.28,30.15,0,0,0,0.00
2013-9-17,82.2,57.9,43.5,58.4,49.3,41.1,93,76,42,30.34,30.25,0,0,0,0.00
2013-9-18,71.2,59.3,51.4,59.3,53.1,46.6,90,80,63,30.26,30.17,0,0,0,0.00
2013-9-19,69.3,63.3,59.9,63.9,60.1,57.0,92,89,82,30.20,30.11,0,0,0,0.00
2013-9-20,88.5,68.7,63.0,72.7,64.0,60.6,94,86,57,30.12,29.96,0,0,0,0.00
2013-9-21,66.2,62.3,56.7,62.7,59.5,54.2,93,91,87,29.98,29.81,0,0,0,0.00
2013-9-22,76.5,58.8,50.7,61.2,53.1,46.4,94,82,54,30.02,29.86,0,0,0,0.00
2013-9-23,88.7,57.4,45.1,63.5,49.1,42.7,92,76,39,30.09,30.01,0,0,0,0.00
2013-9-24,92.8,60.1,45.0,66.9,51.5,41.6,91,76,41,30.10,29.97,0,0,0,0.00
2013-9-25,66.9,58.7,52.0,59.6,54.7,49.1,92,87,77,29.99,29.93,0,0,0,0.00
2013-9-26,89.4,63.6,53.8,66.0,55.8,50.2,93,78,46,30.11,29.95,0,0,0,0.00
2013-9-27,89.4,61.8,46.8,61.7,52.1,44.0,92,74,39,30.20,30.11,0,0,0,0.00
2013-9-28,79.9,61.1,50.7,60.4,51.8,47.2,89,73,48,30.26,30.18,0,0,0,0.00
2013-9-29,79.5,59.4,48.7,60.1,51.8,44.9,88,77,50,30.19,30.07,0,0,0,0.00
2013-9-30,83.1,61.5,55.2,64.1,55.5,52.4,92,82,51,30.11,30.04,0,0,0,0.00
2013-10-1,81.0,61.6,50.2,63.7,54.3,47.8,93,79,48,30.19,30.09,0,0,0,0.00
2013-10-2,85.1,62.5,49.5,66.6,55.2,46.6,92,79,52,30.21,30.13,0,0,0,0.00
2013-10-3,86.4,64.8,53.8,67.6,57.5,51.1,92,79,52,30.19,30.11,0,0,0,0.00
2013-10-4,83.5,64.9,54.5,68.3,59.0,51.9,92,82,59,30.22,30.14,0,0,0,0.00
2013-10-5,87.6,67.4,54.7,69.1,60.0,52.4,93,79,51,30.20,30.09,0,0,0,0.00
2013-10-6,88.3,70.1,58.6,66.9,59.5,55.3,91,72,45,30.09,29.90,0,0,0,0.00
2013-10-7,73.9,58.3,45.7,59.1,50.8,40.8,91,77,51,30.14,29.85,0,0,0,0.00
2013-10-8,77.5,53.0,37.8,54.6,42.7,34.6,90,71,40,30.24,30.12,0,0,0,0.00
2013-10-9,79.5,55.7,44.4,51.9,41.8,37.5,84,63,31,30.27,30.19,0,0,0,0.00
2013-10-10,81.3,57.1,43.2,62.4,48.0,37.3,88,73,46,30.19,30.06,0,0,0,0.00
2013-10-11,68.7,57.6,51.1,57.7,52.1,46.7,90,82,66,30.08,30.01,0,0,0,0.00
2013-10-12,71.2,59.5,53.8,61.8,55.5,51.3,92,87,71,30.16,30.04,0,0,0,0.00
2013-10-13,72.3,61.8,57.9,62.1,57.7,55.6,93,87,69,30.27,30.15,0,0,0,0.00
2013-10-14,74.1,62.0,54.9,61.9,56.8,52.6,93,84,65,30.29,30.19,0,0,0,0.00
2013-10-15,75.7,61.1,52.3,56.4,51.9,48.6,90,73,49,30.23,30.07,0,0,0,0.00
2013-10-16,66.7,59.4,52.9,56.3,52.0,46.6,87,77,66,30.08,29.99,0,0,0,0.00
2013-10-17,65.7,57.6,47.1,61.4,54.4,44.6,91,89,85,30.01,29.82,0,0,0,0.00
2013-10-18,77.9,52.4,41.5,52.1,44.0,37.5,92,76,38,30.08,29.99,0,0,0,0.00
2013-10-19,62.4,47.5,40.3,49.9,42.3,36.9,90,83,60,30.01,29.85,0,0,0,0.00
2013-10-20,76.8,46.6,32.5,49.1,35.5,29.7,91,69,33,30.10,29.99,0,0,0,0.00
2013-10-21,79.5,50.6,32.9,47.5,36.9,28.8,87,64,30,30.11,29.96,0,0,0,0.00
2013-10-22,48.9,45.7,41.5,44.0,40.4,35.2,90,82,70,29.98,29.85,0,0,0,0.00
2013-10-23,46.8,39.9,34.3,41.5,36.6,31.3,90,88,76,30.00,29.73,0,0,0,0.00
2013-10-24,41.7,35.3,31.6,33.3,30.5,27.8,89,83,64,30.15,29.99,0,0,0,0.00
2013-10-25,42.6,34.0,27.0,35.2,28.7,23.1,89,81,63,30.34,30.15,0,0,0,0.00
2013-10-26,65.7,38.7,22.5,35.8,26.3,19.4,89,65,30,30.29,30.00,0,0,0,0.00
2013-10-27,70.3,48.2,37.2,43.4,35.2,29.9,80,63,36,30.11,30.01,0,0,0,0.00
2013-10-28,56.8,45.4,34.3,48.5,40.9,30.0,90,84,72,30.26,30.11,0,0,0,0.00
2013-10-29,68.4,55.6,50.2,56.4,49.3,47.1,93,80,59,30.33,30.25,0,0,0,0.00
2013-10-30,62.2,55.2,51.4,58.9,52.3,47.3,94,90,83,30.26,30.16,0,0,0,0.00
2013-10-31,66.7,58.6,53.2,59.8,53.2,50.9,95,83,63,30.16,29.70,0,0,0,0.00
2013-11-1,79.2,60.9,48.4,57.0,50.8,41.9,92,72,37,29.80,29.66,0,0,0,0.00
2013-11-2,69.6,48.6,39.7,47.9,38.1,32.1,90,70,35,30.01,29.77,0,0,0,0.00
2013-11-3,52.9,41.3,30.9,42.0,34.0,26.7,86,76,58,30.33,30.01,0,0,0,0.00
2013-11-4,64.0,43.0,28.6,38.4,30.3,24.6,87,63,38,30.43,30.33,0,0,0,0.00
2013-11-5,59.9,45.5,36.7,41.3,31.9,26.4,81,60,38,30.46,30.35,0,0,0,0.00
2013-11-6,86.4,57.0,44.4,57.8,47.0,39.8,90,71,37,30.36,30.05,0,0,0,0.00
2013-11-7,57.4,45.7,31.6,49.5,39.4,24.9,90,79,56,30.16,29.98,0,0,0,0.00
2013-11-8,61.9,37.9,27.1,36.1,26.3,20.3,84,66,34,30.28,30.15,0,0,0,0.00
2013-11-9,72.7,44.0,25.7,35.1,25.9,21.1,84,55,21,30.26,30.11,0,0,0,0.00
2013-11-10,69.3,45.7,28.0,37.7,28.7,19.3,73,53,29,30.29,30.13,0,0,0,0.00
2013-11-11,79.3,44.4,25.0,34.6,24.1,19.9,84,52,16,30.28,30.08,0,0,0,0.00
2013-11-12,49.3,32.5,22.1,34.2,24.2,16.8,82,73,43,30.42,30.05,0,0,0,0.00
2013-11-13,41.2,25.0,18.3,25.5,18.2,13.2,83,76,47,30.47,30.40,0,0,0,0.00
2013-11-16,61.2,51.6,49.1,50.1,46.2,44.8,87,82,67,30.15,30.12,0,0,0,0.00
2013-11-17,76.3,57.4,49.5,58.4,51.2,45.1,90,81,51,30.13,29.78,0,0,0,0.00
2013-11-18,68.4,50.5,39.0,51.7,36.7,26.7,89,62,33,30.06,29.88,0,0,0,0.00
2013-11-19,58.3,37.0,28.2,35.6,25.4,20.5,78,64,41,30.25,30.06,0,0,0,0.00
2013-11-20,60.4,39.1,28.0,32.8,24.8,21.5,80,59,32,30.34,30.22,0,0,0,0.00
2013-11-21,66.4,46.3,33.4,47.1,36.2,23.9,79,68,49,30.39,30.28,0,0,0,0.00
2013-11-22,58.6,52.3,44.8,53.4,48.5,42.2,92,87,78,30.28,30.12,0,0,0,0.00
2013-11-23,55.2,37.1,23.5,42.2,30.0,14.7,92,76,48,30.25,30.14,0,0,0,0.00
2013-11-24,43.0,23.0,14.2,18.1,9.3,3.3,73,57,33,30.42,30.24,0,0,0,0.00
2013-11-25,59.5,30.0,13.3,25.8,14.8,5.8,80,57,25,30.41,30.20,0,0,0,0.00
2013-11-26,42.3,36.7,30.0,39.8,33.3,24.2,91,87,78,30.20,29.70,0,0,0,0.00
2013-11-27,33.4,25.2,19.0,30.8,21.7,14.3,91,87,81,30.13,29.71,0,0,0,0.00
2013-11-28,51.3,27.5,18.3,29.1,18.2,13.5,84,70,40,30.37,30.13,0,0,0,0.00
2013-11-29,64.6,31.6,16.0,37.7,21.4,12.3,85,69,36,30.51,30.36,0,0,0,0.00
2013-11-30,55.4,34.3,25.3,33.1,23.0,18.1,81,64,40,30.46,30.23,0,0,0,0.00
2013-12-1,58.8,37.3,23.4,35.2,26.9,18.7,83,67,40,30.23,29.98,0,0,0,0.00
2013-12-2,53.2,42.1,36.7,39.5,34.1,30.8,83,74,58,29.98,29.81,0,0,0,0.00
2013-12-3,58.8,45.4,36.3,47.1,38.5,32.1,86,77,60,29.91,29.82,0,0,0,0.00
2013-12-4,79.9,53.5,40.6,56.3,45.3,37.6,90,76,42,30.01,29.90,0,0,0,0.00
2013-12-5,63.1,57.1,46.2,54.8,50.7,42.3,91,80,73,30.03,29.93,0,0,0,0.00
2013-12-6,57.0,39.8,33.4,54.4,37.4,31.1,91,91,89,30.14,29.95,0,0,0,0.00
2013-12-7,37.0,30.4,27.3,34.7,27.8,24.2,91,90,87,30.39,29.98,0,0,0,0.00
2013-12-8,34.0,31.0,28.0,31.6,28.1,24.7,91,89,87,30.36,30.04,0,0,0,0.00
2013-12-9,46.0,38.1,34.0,43.3,35.9,31.6,93,91,87,30.11,30.01,0,0,0,0.00
2013-12-10,39.9,30.9,27.1,31.2,25.5,22.1,89,80,68,30.10,30.05,0,0,0,0.00
2013-12-11,36.9,33.3,31.6,34.8,29.0,26.2,92,84,80,30.10,29.84,0,0,0,0.00
2013-12-12,36.9,36.9,36.9,34.8,34.8,34.8,92,92,92,29.84,29.84,0,0,0,0.00